Cheatham Lake Weather Center

Moon Phase Calendar



Cheatham Lake Water Level
Online Cameras

 


      

Current Conditions in Ashland City
1/24/2022 7:28:08 PM

51°F
Feels Like 50
Clouds
Humidity
89%
Pressure
29.85"
Wind
5.4 mph (SW)
Dew Point
48°F
UV Index
0/10 (Low)
Visibility
6 mi

Hourly Forecast

Date & Time Mon, Jan 24
7:00 PM
Mon, Jan 24
8:00 PM
Mon, Jan 24
9:00 PM
Mon, Jan 24
10:00 PM
Mon, Jan 24
11:00 PM
Tue, Jan 25
12:00 AM
Tue, Jan 25
1:00 AM
Tue, Jan 25
2:00 AM
Tue, Jan 25
3:00 AM
Tue, Jan 25
4:00 AM
Tue, Jan 25
5:00 AM
Tue, Jan 25
6:00 AM
Tue, Jan 25
7:00 AM
Tue, Jan 25
8:00 AM
Tue, Jan 25
9:00 AM
Tue, Jan 25
10:00 AM
Tue, Jan 25
11:00 AM
Tue, Jan 25
12:00 PM
Tue, Jan 25
1:00 PM
Tue, Jan 25
2:00 PM
Tue, Jan 25
3:00 PM
Tue, Jan 25
4:00 PM
Tue, Jan 25
5:00 PM
Tue, Jan 25
6:00 PM
Tue, Jan 25
7:00 PM
Tue, Jan 25
8:00 PM
Tue, Jan 25
9:00 PM
Tue, Jan 25
10:00 PM
Tue, Jan 25
11:00 PM
Wed, Jan 26
12:00 AM
Wed, Jan 26
1:00 AM
Wed, Jan 26
2:00 AM
Wed, Jan 26
3:00 AM
Wed, Jan 26
4:00 AM
Wed, Jan 26
5:00 AM
Wed, Jan 26
6:00 AM
Wed, Jan 26
7:00 AM
Wed, Jan 26
8:00 AM
Wed, Jan 26
9:00 AM
Wed, Jan 26
10:00 AM
Wed, Jan 26
11:00 AM
Wed, Jan 26
12:00 PM
Wed, Jan 26
1:00 PM
Wed, Jan 26
2:00 PM
Wed, Jan 26
3:00 PM
Wed, Jan 26
4:00 PM
Wed, Jan 26
5:00 PM
Wed, Jan 26
6:00 PM
Condition
Clouds

Clouds

Clouds

Clouds

Clouds

Clouds

Clouds

Clouds

Clouds

Clouds

Clouds

Clouds

Clouds

Clouds

Clouds

Clouds

Clouds

Clouds

Clear

Clear

Clear

Clear

Clear

Clear

Clear

Clear

Clear

Clear

Clear

Clear

Clouds

Clouds

Clouds

Clouds

Clouds

Clouds

Clouds

Clouds

Clouds

Clouds

Clouds

Clouds

Clear

Clear

Clear

Clear

Clear

Clear
Temperature 51°F49°F48°F45°F43°F39°F38°F38°F37°F36°F35°F34°F31°F29°F29°F31°F33°F35°F36°F37°F36°F35°F31°F29°F28°F27°F26°F25°F25°F24°F24°F24°F23°F23°F23°F22°F22°F23°F25°F28°F31°F33°F35°F35°F35°F34°F29°F27°F
Feels Like 50°F48°F46°F44°F43°F35°F33°F32°F31°F30°F28°F26°F23°F20°F20°F23°F25°F27°F29°F30°F29°F28°F24°F22°F20°F19°F18°F17°F16°F15°F15°F14°F14°F14°F14°F13°F13°F13°F16°F20°F23°F26°F29°F30°F30°F28°F24°F21°F
Cloudiness 100%100%100%99%98%85%78%84%89%92%94%95%95%92%71%55%45%38%0%0%0%0%0%0%0%0%0%1%2%3%14%27%47%53%60%66%90%88%65%50%40%34%0%0%0%0%0%0%
Visibility 6 mi6 mi6 mi6 mi6 mi6 mi6 mi6 mi6 mi6 mi6 mi6 mi6 mi6 mi6 mi6 mi6 mi6 mi6 mi6 mi6 mi6 mi6 mi6 mi6 mi6 mi6 mi6 mi6 mi6 mi6 mi6 mi6 mi6 mi6 mi6 mi6 mi6 mi6 mi6 mi6 mi6 mi6 mi6 mi6 mi6 mi6 mi6 mi
Precipitation 0%0%1%1%0%0%0%0%0%0%0%0%0%0%0%0%0%0%0%0%0%0%0%0%0%0%0%0%0%0%0%0%0%0%0%0%0%0%0%0%0%0%0%0%0%0%0%0%
Humidity 89%89%90%91%92%94%93%91%88%85%83%84%85%81%67%55%47%43%41%40%40%44%51%56%57%57%57%56%56%55%54%53%51%49%48%48%49%45%38%33%28%25%24%24%25%27%37%41%
Dew Point 48°F46°F45°F43°F41°F37°F36°F35°F33°F32°F30°F29°F27°F24°F19°F17°F15°F14°F14°F14°F14°F15°F15°F15°F14°F13°F12°F11°F11°F10°F9°F8°F7°F6°F5°F5°F5°F4°F3°F2°F1°F1°F1°F2°F3°F3°F6°F6°F
Pressure 29.85"29.85"29.85"29.88"29.91"29.94"29.97"30"30"30.03"30.06"30.09"30.15"30.18"30.21"30.24"30.24"30.24"30.21"30.21"30.21"30.24"30.27"30.3"30.33"30.33"30.36"30.39"30.39"30.39"30.42"30.42"30.42"30.42"30.45"30.47"30.47"30.5"30.5"30.5"30.47"30.45"30.42"30.42"30.39"30.42"30.42"30.42"
Wind Speed 5.4 mph4.3 mph3.7 mph3.4 mph2.6 mph6.2 mph7.5 mph7.4 mph8.2 mph8.2 mph9.1 mph9.9 mph10.2 mph10.2 mph10.1 mph9.8 mph10.3 mph10.4 mph9.8 mph9.5 mph9.7 mph8.7 mph7.8 mph7.1 mph7.7 mph8 mph8 mph7.4 mph7.8 mph7.9 mph7.8 mph8.3 mph8.2 mph7.9 mph8 mph8 mph8 mph8.9 mph8.4 mph7.8 mph8 mph7.5 mph6.7 mph6.6 mph6.8 mph6.4 mph5 mph5.1 mph
Wind
Direction
222°
SW
244°
WSW
262°
W
284°
WNW
280°
W
337°
NNW
357°
N

N

N
359°
N

N

N

N

N

N

N

N

N

N

N

N

N

N

N

N

N

N

N

N

N

N

N
10°
N
12°
NNE
14°
NNE
17°
NNE
18°
NNE
23°
NNE
28°
NNE
28°
NNE
25°
NNE
25°
NNE
22°
NNE
21°
NNE
22°
NNE
27°
NNE
22°
NNE
31°
NNE

Daily Forecast

Date High Low Precip. Humidity
Today
Jan 24

Clear
54 °F
28 °F
1%
58%
Tuesday
Jan 25

Clouds
39 °F
25 °F
0%
43%
Wednesday
Jan 26

Clouds
35 °F
22 °F
0%
25%
Thursday
Jan 27

Clouds
47 °F
25 °F
0%
30%
Friday
Jan 28

Snow
34 °F
23 °F
51%
65%
Saturday
Jan 29

Clear
38 °F
21 °F
0%
35%
Sunday
Jan 30

Clouds
51 °F
28 °F
0%
49%
Monday
Jan 31

Clear
49 °F
28 °F
0%
50%
Tuesday
Feb 1

Rain
53 °F
36 °F
79%
58%
Wednesday
Feb 2

Rain
57 °F
48 °F
100%
91%
Thursday
Feb 3

Rain
58 °F
33 °F
100%
75%
Friday
Feb 4

Clear
47 °F
30 °F
0%
37%
Saturday
Feb 5

Clouds
40 °F
31 °F
0%
42%
Sunday
Feb 6

Rain
47 °F
33 °F
100%
63%
Monday
Feb 7

Rain
39 °F
36 °F
100%
97%
Tuesday
Feb 8

Clear
48 °F
29 °F
0%
59%

Temperature 8-14 Day Outlook



Precipitation 8-14 Day Outlook




Quick Links
Cheatham Lake News
Cheatham Lake Photos
Cheatham Lake Videos




About Us
Contact Us
Site Map
Search Site
Advertise With Us
   
Cheatham.USLakes.info
THE CHEATHAM LAKE WEBSITE

Copyright 2022, Lakes Online
Privacy    |    Legal